TimeMDT,TemperatureF,Dew PointF,Humidity,Sea Level PressureIn,VisibilityMPH,Wind Direction,Wind SpeedMPH,Gust SpeedMPH,PrecipitationIn,Events,Conditions,WindDirDegrees,DateUTC
12:51 AM,75.9,48.0,37,29.88,10.0,Calm,Calm,-,N/A,,Clear,0,2013-08-20 06:51:00
1:51 AM,71.1,50.0,47,29.88,10.0,North,4.6,-,N/A,,Clear,10,2013-08-20 07:51:00
2:51 AM,64.9,51.1,61,29.89,10.0,NNW,4.6,-,N/A,,Clear,330,2013-08-20 08:51:00
3:51 AM,68.0,50.0,52,29.88,10.0,SE,5.8,-,N/A,,Partly Cloudy,140,2013-08-20 09:51:00
4:51 AM,63.0,52.0,67,29.89,10.0,Calm,Calm,-,N/A,,Clear,0,2013-08-20 10:51:00
5:51 AM,63.0,48.9,60,29.89,10.0,Calm,Calm,-,N/A,,Clear,0,2013-08-20 11:51:00
6:51 AM,59.0,51.1,75,29.92,10.0,NW,3.5,-,N/A,,Clear,310,2013-08-20 12:51:00
7:51 AM,63.0,51.1,65,29.93,10.0,Calm,Calm,-,N/A,,Partly Cloudy,0,2013-08-20 13:51:00
8:51 AM,69.1,51.1,53,29.93,10.0,Calm,Calm,-,N/A,,Clear,0,2013-08-20 14:51:00
9:51 AM,73.9,50.0,43,29.93,10.0,Calm,Calm,-,N/A,,Scattered Clouds,0,2013-08-20 15:51:00
10:51 AM,75.9,52.0,43,29.94,10.0,Calm,Calm,-,N/A,,Overcast,0,2013-08-20 16:51:00
11:51 AM,78.1,51.1,39,29.95,10.0,Calm,Calm,-,N/A,,Overcast,0,2013-08-20 17:51:00
12:51 PM,78.1,53.1,42,29.93,10.0,WSW,5.8,-,N/A,,Mostly Cloudy,240,2013-08-20 18:51:00
1:51 PM,77.0,54.0,45,29.93,10.0,Calm,Calm,-,0.00,Rain,Light Rain,0,2013-08-20 19:51:00
2:51 PM,82.0,48.9,31,29.91,10.0,West,4.6,-,0.00,,Clear,260,2013-08-20 20:51:00
3:51 PM,86.0,46.0,25,29.87,10.0,South,4.6,-,N/A,,Clear,190,2013-08-20 21:51:00
4:51 PM,88.0,45.0,22,29.86,10.0,South,3.5,-,N/A,,Clear,180,2013-08-20 22:51:00
5:51 PM,88.0,46.9,24,29.87,10.0,WNW,5.8,-,N/A,,Clear,300,2013-08-20 23:51:00
6:11 PM,80.6,48.2,32,30.06,10.0,North,15.0,24.2,N/A,,Partly Cloudy,360,2013-08-21 00:11:00
6:51 PM,80.1,51.1,36,29.91,10.0,NNW,9.2,-,N/A,,Clear,340,2013-08-21 00:51:00
7:51 PM,77.0,51.1,40,29.91,10.0,North,5.8,-,N/A,,Clear,350,2013-08-21 01:51:00
8:51 PM,72.0,54.0,53,29.91,10.0,Calm,Calm,-,N/A,,Clear,0,2013-08-21 02:51:00
9:51 PM,73.9,53.1,48,29.92,10.0,East,4.6,-,N/A,,Clear,90,2013-08-21 03:51:00
10:51 PM,75.9,51.1,42,29.91,10.0,South,6.9,-,0.00,Rain,Light Rain,170,2013-08-21 04:51:00
11:51 PM,77.0,48.0,36,29.90,10.0,South,8.1,-,0.00,,Mostly Cloudy,190,2013-08-21 05:51:00